Total_Precipitation_Accumulation
0.00 0.00 0.00 0.00 0.00 0.00 0.00 0.00 0.00 0.00 0.03 0.09 0.09 0.18 0.14 0.20 0.35 0.73 0.63 1.10 1.63 1.61 1.87 1.49 0.69 0.34 0.06 0.02 0.01 0.01 0.00 0.00 0.00 0.00 0.00 0.03 0.03 0.05 0.06 0.07 0.01 0.01 0.08 0.06 0.03 0.09 0.21 0.25 0.10
0.00 0.00 0.00 0.00 0.00 0.00 0.00 0.00 0.00 0.01 0.11 0.30 0.29 0.33 0.32 0.82 0.58 0.63 0.69 0.79 0.53 0.52 0.54 1.99 2.15 0.97 0.44 0.19 0.09 0.06 0.01 0.00 0.04 0.01 0.01 0.01 0.02 0.07 0.18 0.24 0.09 0.04 0.12 0.14 0.10 0.16 0.20 0.16 0.05
0.00 0.00 0.00 0.00 0.00 0.00 0.00 0.00 0.02 0.06 0.11 0.13 0.18 0.23 0.45 1.31 0.81 0.74 0.76 0.95 1.12 0.92 0.75 0.68 1.21 1.44 1.09 0.50 0.31 0.19 0.05 0.00 0.02 0.01 0.01 0.01 0.07 0.20 0.24 0.33 0.22 0.11 0.33 0.65 0.57 0.53 0.22 0.04 0.01
0.00 0.00 0.00 0.00 0.00 0.00 0.00 0.01 0.03 0.06 0.08 0.07 0.08 0.29 0.57 0.94 0.81 0.79 0.80 1.47 2.13 1.96 1.71 1.50 1.37 1.12 1.43 1.21 0.95 0.50 0.10 0.02 0.06 0.03 0.12 0.18 0.40 0.41 0.32 0.27 0.41 0.50 0.68 0.78 0.83 0.86 0.32 0.02 0.02
0.00 0.00 0.00 0.00 0.00 0.00 0.00 0.01 0.06 0.17 0.42 0.40 0.11 0.39 0.75 0.59 0.47 0.81 1.35 2.01 2.56 3.10 3.53 2.28 3.25 2.60 2.34 1.84 1.63 1.48 0.95 0.21 0.27 0.20 0.30 0.42 0.40 0.41 0.46 0.56 0.70 0.99 1.10 0.99 0.88 0.76 0.52 0.09 0.04
0.00 0.00 0.00 0.00 0.00 0.00 0.01 0.06 0.15 0.25 0.28 0.19 0.16 0.53 0.88 0.64 0.53 1.01 1.31 2.49 3.73 2.91 3.59 3.53 4.68 6.45 4.68 3.18 2.77 2.90 2.60 1.90 1.00 0.71 0.71 1.09 1.37 1.29 0.93 0.77 0.90 1.06 1.19 1.06 0.84 0.76 0.63 0.34 0.15
0.00 0.00 0.00 0.00 0.00 0.01 0.11 0.16 0.19 0.18 0.11 0.24 0.42 0.88 1.01 0.64 0.78 0.94 1.77 3.63 5.41 6.22 6.41 5.89 5.76 6.76 6.41 5.77 4.50 4.04 4.09 5.35 4.85 2.97 2.31 2.43 1.96 1.54 1.18 0.86 0.72 0.55 0.58 0.96 0.87 0.69 0.64 0.46 0.43
0.00 0.00 0.00 0.00 0.00 0.07 0.19 0.23 0.15 0.10 0.17 0.53 0.24 0.70 0.67 1.00 0.91 0.81 1.11 2.50 4.32 7.45 8.55 8.07 7.93 7.67 5.10 4.67 4.32 3.65 4.53 3.66 4.87 4.67 3.60 2.21 1.76 1.40 0.93 0.83 0.66 0.62 0.49 0.48 0.50 0.71 0.65 0.57 0.45
0.00 0.00 0.00 0.00 0.01 0.15 0.23 0.08 0.24 0.13 0.11 0.27 0.31 0.50 0.60 0.86 0.55 0.66 0.71 1.39 2.34 3.94 4.55 5.01 6.25 6.74 6.15 4.42 3.33 2.71 3.24 5.15 2.71 2.79 2.83 2.70 1.50 1.22 0.92 0.72 0.73 0.76 0.63 0.44 0.56 0.52 0.39 0.48 0.54
0.00 0.00 0.00 0.00 0.06 0.24 0.13 0.03 0.19 0.09 0.19 0.54 0.38 0.72 0.66 0.43 0.46 0.57 0.60 0.69 1.07 1.57 2.86 3.27 2.94 2.29 2.39 2.35 2.34 2.00 2.61 4.16 3.65 2.52 1.77 1.21 1.34 0.79 0.62 0.87 0.78 1.13 1.09 1.08 1.03 0.72 0.74 0.72 0.32
0.00 0.00 0.00 0.02 0.11 0.04 0.02 0.07 0.10 0.32 0.45 0.52 1.13 0.48 0.41 0.49 0.56 0.70 0.94 0.50 0.51 0.78 1.43 1.56 1.28 1.00 0.79 0.67 0.92 1.32 2.66 3.19 3.42 2.34 1.86 1.22 1.17 0.96 0.56 0.65 1.14 1.28 1.40 0.98 0.99 0.88 0.90 0.81 0.71
0.00 0.00 0.00 0.01 0.01 0.01 0.00 0.01 0.11 0.35 0.80 0.30 0.32 0.38 0.47 0.75 0.62 0.28 0.25 0.27 0.40 0.54 0.80 0.89 0.65 0.50 0.38 0.28 0.48 0.78 1.34 2.43 2.15 2.19 1.81 1.42 0.80 0.84 0.65 0.68 1.05 1.23 1.19 1.01 1.07 0.91 0.98 1.00 0.96
0.00 0.00 0.00 0.01 0.04 0.03 0.00 0.04 0.12 0.30 0.11 0.11 0.16 0.38 0.55 0.56 0.17 0.08 0.15 0.16 0.26 0.46 0.49 0.81 0.76 0.50 0.36 0.28 0.36 0.62 0.86 2.07 1.37 2.22 1.55 1.34 0.53 0.78 0.69 0.72 0.83 0.87 1.24 1.29 1.37 1.45 1.27 1.12 1.28
0.00 0.00 0.00 0.00 0.01 0.01 0.02 0.05 0.09 0.39 0.12 0.12 0.12 0.32 0.56 0.58 0.09 0.04 0.07 0.11 0.16 0.31 0.43 0.48 0.52 0.72 0.67 0.75 0.84 0.83 1.22 1.67 1.47 1.97 1.21 1.44 0.46 0.54 0.58 0.70 0.92 0.82 1.43 1.47 1.51 1.63 1.62 1.44 2.09
0.00 0.00 0.02 0.03 0.01 0.00 0.05 0.19 0.35 0.13 0.08 0.07 0.03 0.04 0.36 0.86 0.24 0.04 0.03 0.05 0.06 0.19 0.32 0.55 0.62 0.45 0.53 0.87 1.14 1.24 1.54 1.80 1.69 1.88 1.39 1.35 0.63 0.60 0.77 1.10 1.18 1.07 1.11 1.60 1.95 2.00 2.18 2.63 2.82
0.00 0.00 0.01 0.04 0.03 0.02 0.15 0.48 0.05 0.03 0.05 0.04 0.01 0.01 0.06 0.10 0.03 0.01 0.01 0.00 0.01 0.05 0.22 0.57 0.75 0.77 0.66 0.56 0.67 1.09 1.18 1.36 1.51 1.74 1.56 1.63 1.33 0.97 1.02 1.17 1.12 1.05 1.06 1.30 2.13 2.31 2.30 2.53 2.45
0.00 0.00 0.00 0.01 0.01 0.01 0.05 0.33 0.12 0.05 0.09 0.08 0.02 0.01 0.01 0.01 0.01 0.00 0.03 0.02 0.05 0.03 0.10 0.54 0.92 1.07 0.99 0.76 1.03 0.77 0.41 0.58 0.78 1.13 1.20 1.66 1.69 1.16 1.05 1.06 1.01 0.78 0.88 1.19 1.62 1.81 1.36 1.16 1.29
0.00 0.00 0.00 0.02 0.02 0.01 0.01 0.03 0.25 0.12 0.05 0.27 0.09 0.04 0.04 0.00 0.01 0.03 0.07 0.07 0.07 0.05 0.11 0.52 1.15 1.24 1.07 0.71 0.56 0.52 0.30 0.44 0.51 0.78 1.03 1.19 1.27 1.27 1.33 1.24 1.04 0.94 0.73 0.59 0.54 0.84 1.20 1.11 1.51
0.00 0.00 0.00 0.00 0.01 0.00 0.00 0.01 0.01 0.00 0.00 0.03 0.05 0.07 0.02 0.00 0.03 0.05 0.07 0.09 0.07 0.08 0.19 0.43 0.83 1.16 0.65 0.38 0.27 0.35 0.37 0.37 0.38 0.44 0.78 1.09 1.01 1.01 1.29 1.77 1.41 1.20 1.01 0.80 0.74 0.76 0.90 1.01 1.27
0.00 0.00 0.00 0.00 0.00 0.00 0.00 0.00 0.00 0.00 0.00 0.01 0.01 0.11 0.03 0.00 0.01 0.02 0.04 0.03 0.04 0.11 0.36 0.45 0.40 0.44 0.41 0.31 0.22 0.19 0.28 0.42 0.32 0.38 0.53 0.80 0.98 1.07 1.17 1.31 1.44 1.34 1.62 1.36 0.96 1.02 0.93 0.94 1.12
0.00 0.00 0.00 0.00 0.00 0.00 0.00 0.00 0.00 0.01 0.01 0.02 0.00 0.00 0.00 0.00 0.02 0.03 0.03 0.03 0.01 0.02 0.18 0.19 0.09 0.13 0.23 0.32 0.31 0.32 0.43 0.52 0.52 0.34 0.34 0.47 0.82 1.11 1.20 0.82 1.40 1.66 1.39 1.31 1.45 1.38 1.24 1.23 1.45
0.00 0.00 0.00 0.00 0.00 0.00 0.00 0.00 0.00 0.00 0.01 0.00 0.00 0.00 0.00 0.02 0.01 0.00 0.00 0.00 0.02 0.06 0.25 0.12 0.11 0.13 0.12 0.14 0.16 0.19 0.29 0.23 0.21 0.21 0.17 0.38 0.38 0.76 1.17 1.03 0.77 1.25 1.21 1.10 1.11 1.26 1.25 1.52 1.63
0.01 0.00 0.00 0.00 0.00 0.05 0.02 0.00 0.03 0.05 0.02 0.00 0.01 0.02 0.02 0.03 0.02 0.02 0.02 0.01 0.03 0.07 0.20 0.16 0.13 0.22 0.16 0.27 0.30 0.23 0.26 0.26 0.24 0.18 0.22 0.27 0.39 0.35 0.75 0.96 0.98 0.78 0.95 0.96 0.99 1.06 1.04 0.94 1.00
0.00 0.02 0.00 0.00 0.02 0.07 0.01 0.01 0.01 0.01 0.03 0.07 0.14 0.11 0.08 0.07 0.05 0.04 0.04 0.05 0.05 0.12 0.20 0.31 0.31 0.22 0.21 0.36 0.42 0.27 0.23 0.20 0.32 0.32 0.23 0.27 0.36 0.50 0.59 0.89 1.16 1.13 0.76 0.90 0.94 0.86 0.99 0.93 0.92
0.02 0.11 0.18 0.19 0.09 0.04 0.00 0.02 0.02 0.06 0.16 0.28 0.32 0.14 0.08 0.06 0.11 0.14 0.15 0.13 0.10 0.11 0.15 0.28 0.42 0.47 0.33 0.34 0.29 0.26 0.22 0.25 0.19 0.22 0.27 0.31 0.32 0.52 0.67 0.64 0.62 0.91 0.96 0.97 1.29 1.22 1.01 0.92 0.98
0.02 0.08 0.26 0.37 0.18 0.08 0.15 0.09 0.18 0.36 0.38 0.44 0.32 0.24 0.20 0.24 0.27 0.28 0.21 0.14 0.13 0.19 0.13 0.13 0.48 0.66 0.71 0.60 0.36 0.30 0.25 0.19 0.20 0.25 0.25 0.18 0.17 0.17 0.48 0.79 0.78 0.73 1.05 1.25 1.39 1.57 1.39 1.10 0.98
0.08 0.11 0.10 0.50 0.29 0.17 0.12 0.11 0.58 1.05 0.79 1.22 1.33 0.82 0.67 0.55 0.44 0.28 0.16 0.12 0.13 0.17 0.24 0.34 0.54 0.59 0.79 0.64 0.40 0.34 0.24 0.19 0.20 0.23 0.21 0.19 0.21 0.26 0.42 0.51 0.80 0.90 0.96 0.96 1.06 1.25 1.38 1.34 1.08
0.07 0.12 0.42 0.70 0.57 0.25 0.01 0.06 0.41 0.67 0.73 0.80 0.68 0.52 0.40 0.31 0.21 0.17 0.12 0.17 0.14 0.23 0.50 0.90 1.04 0.97 1.01 0.93 0.82 0.55 0.46 0.45 0.39 0.34 0.35 0.38 0.38 0.40 0.42 0.43 0.42 0.58 0.71 0.70 0.69 0.82 1.19 1.44 1.16
0.10 0.30 0.35 0.48 0.29 0.37 0.20 0.40 0.77 0.65 0.86 0.64 0.20 0.18 0.20 0.22 0.20 0.16 0.09 0.15 0.16 0.28 0.39 0.52 0.86 1.41 1.71 1.56 1.30 0.98 0.75 1.07 1.09 0.81 0.78 0.73 0.62 0.59 0.55 0.51 0.52 0.39 0.38 0.46 0.41 0.44 0.77 1.26 1.50
0.16 0.24 0.46 0.96 0.64 0.39 0.46 0.59 0.93 0.76 0.40 0.69 0.32 0.24 0.11 0.13 0.19 0.14 0.11 0.10 0.11 0.13 0.20 0.37 0.49 0.71 1.04 1.24 1.62 2.02 1.72 1.44 1.55 1.46 1.34 1.29 0.92 0.79 0.74 0.66 0.62 0.54 0.54 0.51 0.42 0.36 0.60 0.93 1.40